User: anonymous   Login
Location: Veyrier
(46.1830°N, 6.2000°E)
Time: 14:21:34
(UTC+01:00)
Language:

Iridium 98 - Orbit

View from above orbital plane
View from above orbital plane
View from above satellite
View from above satellite

Ground track
Ground track

The orbit data is extracted from the following two-line orbital elements,

1 27451U 02031B   17023.59184081  .00000132  00000-0  40156-4 0  9990
2 27451  86.3947  82.6828 0002135  93.6864  25.0686 14.34222074770571
Epoch (UTC): 23 January 2017 14:12:15
Eccentricity: 0.0002135
inclination: 86.3947°
perigee height: 776 km
apogee height: 779 km
right ascension of ascending node: 82.6828°
argument of perigee: 93.6864°
revolutions per day: 14.34222074
mean anomaly at epoch: 25.0686°
orbit number at epoch: 77057

The dashed part of the orbit path shows where the satellite is in the earth's shadow,  

DLR